Regional Weather Roundup
Issued by NWS Cleveland, OH

Home | Current Version | Previous Version | Graphics & Text | Print | Product List | Glossary On
Versions: 1 2 3 4 5 6 7 8 9 10 11 12 13 14 15 16 17 18 19 20 21 22 23 24 25 26 27 28 29 30 31 32 33 34 35 36 37 38 39 40 41 42 43 44 45 46 47 48 49 50
009
ASUS41 KCLE 011402
RWRCLE
OHIO REGIONAL WEATHER ROUNDUP
NATIONAL WEATHER SERVICE CLEVELAND, OH
1000 AM EDT SAT OCT 01 2016

NOTE: "FAIR" INDICATES FEW OR NO CLOUDS BELOW 12,000 FEET WITH NO
SIGNIFICANT WEATHER AND/OR OBSTRUCTIONS TO VISIBILITY.

OHZ001>008-015>018-024>027-034-035-043-044-011500-
   NORTHWEST OHIO

CITY           SKY/WX    TMP DP  RH WIND       PRES   REMARKS
DEFIANCE       PTSUNNY   62  56  80 S6        30.05R
FINDLAY        MOSUNNY   58  54  86 S7        30.05S
TOLEDO EXPRESS SUNNY     59  59 100 S3        30.05R
TOLEDO EXEC    MOSUNNY   62  58  86 S6        30.07R
LIMA           MOSUNNY   58  55  90 SE6       30.06R
$$

OHZ009>014-019>023-028>033-038-089-011500-
   NORTHEAST OHIO

CITY           SKY/WX    TMP DP  RH WIND       PRES   REMARKS
CLE-HOPKINS    CLOUDY    63  56  78 SE6       30.11R
CLE-LAKEFRONT  CLOUDY    62  57  83 SE7       30.09R
CUY CO. ARPT   CLOUDY    61  61 100 SE7       30.10S FOG
LORAIN-ELYRIA  CLOUDY    60  56  86 SE5       30.09S
ASHTABULA      CLOUDY    60  58  92 S7        30.12S
AKRON-CANTON   CLOUDY    60  56  86 S6        30.09F
WOOSTER        PTSUNNY   60  56  86 S6        30.10R
MANSFIELD      MOSUNNY   60  56  86 S10       30.08S
YOUNGSTOWN     CLOUDY    59  56  89 E10       30.10S
$$

OHZ042-051>053-060>062-070>072-077>081-011500-
  SOUTHWEST OHIO

CITY           SKY/WX    TMP DP  RH WIND       PRES   REMARKS
CINC-COVINGTON PTSUNNY   57  55  94 S9        30.06R
CINC-LUNKEN    PTSUNNY   58  56  93 S9        30.07S
HAMILTON       CLOUDY    58  55  90 VRB5      30.07S
DAYTON         PTSUNNY   57  53  86 S9        30.06S
WRIGHT-PAT AFB PTSUNNY   57  56  95 S7        30.06R
DAYTON GENERAL CLOUDY    56  53  90 S8        30.06R
WILMINGTON     SUNNY     57  54  89 S9        30.06S
$$

OHZ036-037-039>041-045>050-054>059-063>069-073>076-082>088-011500-
  CENTRAL AND SOUTHEAST OHIO

CITY           SKY/WX    TMP DP  RH WIND       PRES   REMARKS
COLUMBUS       PTSUNNY   60  57  89 SE6       30.07S
OSU AIRPORT    MOSUNNY   60  55  83 S8        30.07S
BOLTON FIELD   PTSUNNY   55  55 100 S5        30.08R
RICKENBACK AFB MOSUNNY   57  56  95 S6        30.07S
NEWARK         CLOUDY    57  56  96 CALM      30.08S
MARION         SUNNY     59  55  87 S7        30.07S
LANCASTER      PTSUNNY   56  56 100 SE6       30.09R FOG
ZANESVILLE     CLOUDY    57  56  96 CALM      30.09S
NEW PHILLY     CLOUDY    61  58  90 E3        30.10S
$$




USA.gov is the U.S. government's official web portal to all federal, state and local government web resources and services.